{"data":{"norad_id":58965,"epoch":"2026-09-20T23:01:15.022560Z","epoch_age_seconds":115981,"freshness":"FRESH","line1":"1 58965U 24031A   26263.95920165  .00001869  00000+0  66474-4 0  9993","line2":"2 58965  53.1586 107.2914 0001376  91.1023 269.0137 15.34382873146463","mean_motion":15.34382873,"eccentricity":0.0001376,"inclination_deg":53.1586,"raan_deg":107.2914,"arg_perigee_deg":91.1023,"mean_anomaly_deg":269.0137,"bstar":6.6474e-5,"rev_number":14646,"period_min":93.848805623367,"perigee_km":461.81283911231,"apogee_km":463.69545235562,"semimajor_km":6840.891145734,"source":"CELESTRAK","updated_at":"2026-09-21T09:00:34.018310Z"}}